Year,Month,Day,Hour,Minute,Value (Times are PST for temperature in C)
2020,08,14,00,00,14.80
2020,08,14,00,01,14.80
2020,08,14,00,02,14.80
2020,08,14,00,03,14.80
2020,08,14,00,04,14.90
2020,08,14,00,05,14.90
2020,08,14,00,06,14.90
2020,08,14,00,07,14.90
2020,08,14,00,08,14.90
2020,08,14,00,09,15.00
2020,08,14,00,10,15.00
2020,08,14,00,11,15.00
2020,08,14,00,12,15.00
2020,08,14,00,13,15.00
2020,08,14,00,14,15.00
2020,08,14,00,15,15.00
2020,08,14,00,16,15.00
2020,08,14,00,17,15.10
2020,08,14,00,18,15.10
2020,08,14,00,19,15.10
2020,08,14,00,20,15.10
2020,08,14,00,21,15.10
2020,08,14,00,22,15.10
2020,08,14,00,23,15.10
2020,08,14,00,24,15.00
2020,08,14,00,25,15.00
2020,08,14,00,26,15.00
2020,08,14,00,27,15.00
2020,08,14,00,28,15.00
2020,08,14,00,29,15.00
2020,08,14,00,30,15.00
2020,08,14,00,31,15.00
2020,08,14,00,32,14.90
2020,08,14,00,33,14.90
2020,08,14,00,34,14.90
2020,08,14,00,35,14.90
2020,08,14,00,36,14.90
2020,08,14,00,37,14.90
2020,08,14,00,38,14.80
2020,08,14,00,39,14.80
2020,08,14,00,40,14.80
2020,08,14,00,41,14.80
2020,08,14,00,42,14.70
2020,08,14,00,43,14.70
2020,08,14,00,44,14.60
2020,08,14,00,45,14.60
2020,08,14,00,46,14.60
2020,08,14,00,47,14.50
2020,08,14,00,48,14.50
2020,08,14,00,49,14.40
2020,08,14,00,50,14.40
2020,08,14,00,51,14.30
2020,08,14,00,52,14.20
2020,08,14,00,53,14.20
2020,08,14,00,54,14.20
2020,08,14,00,55,14.20
2020,08,14,00,56,14.10
2020,08,14,00,57,14.10
2020,08,14,00,58,14.00
2020,08,14,00,59,14.00
2020,08,14,01,00,13.90
2020,08,14,01,01,13.90
2020,08,14,01,02,13.90
2020,08,14,01,03,13.80
2020,08,14,01,04,13.80
2020,08,14,01,05,13.80
2020,08,14,01,06,13.70
2020,08,14,01,07,13.70
2020,08,14,01,08,13.70
2020,08,14,01,09,13.70
2020,08,14,01,10,13.70
2020,08,14,01,11,13.70
2020,08,14,01,12,13.70
2020,08,14,01,13,13.60
2020,08,14,01,14,13.60
2020,08,14,01,15,13.60
2020,08,14,01,16,13.60
2020,08,14,01,17,13.60
2020,08,14,01,18,13.50
2020,08,14,01,19,13.50
2020,08,14,01,20,13.50
2020,08,14,01,21,13.50
2020,08,14,01,22,13.40
2020,08,14,01,23,13.40
2020,08,14,01,24,13.40
2020,08,14,01,25,13.40
2020,08,14,01,26,13.40
2020,08,14,01,27,13.30
2020,08,14,01,28,13.30
2020,08,14,01,29,13.30
2020,08,14,01,30,13.30
2020,08,14,01,31,13.30
2020,08,14,01,32,13.30
2020,08,14,01,33,13.30
2020,08,14,01,34,13.30
2020,08,14,01,35,13.30
2020,08,14,01,36,13.20
2020,08,14,01,37,13.20
2020,08,14,01,38,13.20
2020,08,14,01,39,13.20
2020,08,14,01,40,13.10
2020,08,14,01,41,13.10
2020,08,14,01,42,13.10
2020,08,14,01,43,13.10
2020,08,14,01,44,13.00
2020,08,14,01,45,13.00
2020,08,14,01,46,13.00
2020,08,14,01,47,13.00
2020,08,14,01,48,13.00
2020,08,14,01,49,12.90
2020,08,14,01,50,12.90
2020,08,14,01,51,12.90
2020,08,14,01,52,12.90
2020,08,14,01,53,12.90
2020,08,14,01,54,12.90
2020,08,14,01,55,12.90
2020,08,14,01,56,12.90
2020,08,14,01,57,12.90
2020,08,14,01,58,12.90
2020,08,14,01,59,12.90
2020,08,14,02,00,12.90
2020,08,14,02,01,12.80
2020,08,14,02,02,12.80
2020,08,14,02,03,12.80
2020,08,14,02,04,12.80
2020,08,14,02,05,12.80
2020,08,14,02,06,12.80
2020,08,14,02,07,12.80
2020,08,14,02,08,12.80
2020,08,14,02,09,12.80
2020,08,14,02,10,12.80
2020,08,14,02,11,12.80
2020,08,14,02,12,12.80
2020,08,14,02,13,12.80
2020,08,14,02,14,12.80
2020,08,14,02,15,12.70
2020,08,14,02,16,12.70
2020,08,14,02,17,12.70
2020,08,14,02,18,12.70
2020,08,14,02,19,12.60
2020,08,14,02,20,12.60
2020,08,14,02,21,12.60
2020,08,14,02,22,12.60
2020,08,14,02,23,12.60
2020,08,14,02,24,12.60
2020,08,14,02,25,12.60
2020,08,14,02,26,12.60
2020,08,14,02,27,12.50
2020,08,14,02,28,12.50
2020,08,14,02,29,12.50
2020,08,14,02,30,12.50
2020,08,14,02,31,12.50
2020,08,14,02,32,12.50
2020,08,14,02,33,12.50
2020,08,14,02,34,12.50
2020,08,14,02,35,12.50
2020,08,14,02,36,12.50
2020,08,14,02,37,12.50
2020,08,14,02,38,12.40
2020,08,14,02,39,12.40
2020,08,14,02,40,12.40
2020,08,14,02,41,12.40
2020,08,14,02,42,12.40
2020,08,14,02,43,12.40
2020,08,14,02,44,12.40
2020,08,14,02,45,12.40
2020,08,14,02,46,12.40
2020,08,14,02,47,12.40
2020,08,14,02,48,12.40
2020,08,14,02,49,12.40
2020,08,14,02,50,12.40
2020,08,14,02,51,12.30
2020,08,14,02,52,12.30
2020,08,14,02,53,12.30
2020,08,14,02,54,12.30
2020,08,14,02,55,12.30
2020,08,14,02,56,12.30
2020,08,14,02,57,12.30
2020,08,14,02,58,12.20
2020,08,14,02,59,12.20
2020,08,14,03,00,12.20
2020,08,14,03,01,12.20
2020,08,14,03,02,12.10
2020,08,14,03,03,12.10
2020,08,14,03,04,12.10
2020,08,14,03,05,12.10
2020,08,14,03,06,12.00
2020,08,14,03,07,12.00
2020,08,14,03,08,12.00
2020,08,14,03,09,12.00
2020,08,14,03,10,12.00
2020,08,14,03,11,11.90
2020,08,14,03,12,11.90
2020,08,14,03,13,11.90
2020,08,14,03,14,11.90
2020,08,14,03,15,11.90
2020,08,14,03,16,11.90
2020,08,14,03,17,11.90
2020,08,14,03,18,11.90
2020,08,14,03,19,11.90
2020,08,14,03,20,11.90
2020,08,14,03,21,11.90
2020,08,14,03,22,11.90
2020,08,14,03,23,11.90
2020,08,14,03,24,11.80
2020,08,14,03,25,11.80
2020,08,14,03,26,11.80
2020,08,14,03,27,11.80
2020,08,14,03,28,11.80
2020,08,14,03,29,11.80
2020,08,14,03,30,11.80
2020,08,14,03,31,11.80
2020,08,14,03,32,11.80
2020,08,14,03,33,11.80
2020,08,14,03,34,11.80
2020,08,14,03,35,11.80
2020,08,14,03,36,11.80
2020,08,14,03,37,11.80
2020,08,14,03,38,11.80
2020,08,14,03,39,11.80
2020,08,14,03,40,11.80
2020,08,14,03,41,11.70
2020,08,14,03,42,11.70
2020,08,14,03,43,11.70
2020,08,14,03,44,11.70
2020,08,14,03,45,11.70
2020,08,14,03,46,11.70
2020,08,14,03,47,11.70
2020,08,14,03,48,11.70
2020,08,14,03,49,11.70
2020,08,14,03,50,11.70
2020,08,14,03,51,11.70
2020,08,14,03,52,11.70
2020,08,14,03,53,11.70
2020,08,14,03,54,11.70
2020,08,14,03,55,11.70
2020,08,14,03,56,11.70
2020,08,14,03,57,11.70
2020,08,14,03,58,11.70
2020,08,14,03,59,11.70
2020,08,14,04,00,11.70
2020,08,14,04,01,11.70
2020,08,14,04,02,11.70
2020,08,14,04,03,11.70
2020,08,14,04,04,11.60
2020,08,14,04,05,11.60
2020,08,14,04,06,11.60
2020,08,14,04,07,11.60
2020,08,14,04,08,11.60
2020,08,14,04,09,11.60
2020,08,14,04,10,11.60
2020,08,14,04,11,11.60
2020,08,14,04,12,11.60
2020,08,14,04,13,11.60
2020,08,14,04,14,11.60
2020,08,14,04,15,11.50
2020,08,14,04,16,11.40
2020,08,14,04,17,11.40
2020,08,14,04,18,11.40
2020,08,14,04,19,11.40
2020,08,14,04,20,11.40
2020,08,14,04,21,11.40
2020,08,14,04,22,11.40
2020,08,14,04,23,11.40
2020,08,14,04,24,11.30
2020,08,14,04,25,11.30
2020,08,14,04,26,11.30
2020,08,14,04,27,11.30
2020,08,14,04,28,11.30
2020,08,14,04,29,11.30
2020,08,14,04,30,11.30
2020,08,14,04,31,11.20
2020,08,14,04,32,11.20
2020,08,14,04,33,11.20
2020,08,14,04,34,11.20
2020,08,14,04,35,11.20
2020,08,14,04,36,11.20
2020,08,14,04,37,11.20
2020,08,14,04,38,11.20
2020,08,14,04,39,11.20
2020,08,14,04,40,11.20
2020,08,14,04,41,11.20
2020,08,14,04,42,11.20
2020,08,14,04,43,11.20
2020,08,14,04,44,11.20
2020,08,14,04,45,11.20
2020,08,14,04,46,11.20
2020,08,14,04,47,11.20
2020,08,14,04,48,11.20
2020,08,14,04,49,11.20
2020,08,14,04,50,11.20
2020,08,14,04,51,11.20
2020,08,14,04,52,11.20
2020,08,14,04,53,11.20
2020,08,14,04,54,11.20
2020,08,14,04,55,11.20
2020,08,14,04,56,11.20
2020,08,14,04,57,11.20
2020,08,14,04,58,11.20
2020,08,14,04,59,11.20
2020,08,14,05,00,11.20
2020,08,14,05,01,11.20
2020,08,14,05,02,11.20
2020,08,14,05,03,11.20
2020,08,14,05,04,11.20
2020,08,14,05,05,11.20
2020,08,14,05,06,11.20
2020,08,14,05,07,11.20
2020,08,14,05,08,11.20
2020,08,14,05,09,11.20
2020,08,14,05,10,11.20
2020,08,14,05,11,11.20
2020,08,14,05,12,11.20
2020,08,14,05,13,11.10
2020,08,14,05,14,11.10
2020,08,14,05,15,11.10
2020,08,14,05,16,11.10
2020,08,14,05,17,11.10
2020,08,14,05,18,11.10
2020,08,14,05,19,11.00
2020,08,14,05,20,10.90
2020,08,14,05,21,10.90
2020,08,14,05,22,10.90
2020,08,14,05,23,10.90
2020,08,14,05,24,10.90
2020,08,14,05,25,10.90
2020,08,14,05,26,10.90
2020,08,14,05,27,10.90
2020,08,14,05,28,10.80
2020,08,14,05,29,10.80
2020,08,14,05,30,10.80
2020,08,14,05,31,10.70
2020,08,14,05,32,10.70
2020,08,14,05,33,10.70
2020,08,14,05,34,10.70
2020,08,14,05,35,10.70
2020,08,14,05,36,10.70
2020,08,14,05,37,10.70
2020,08,14,05,38,10.70
2020,08,14,05,39,10.70
2020,08,14,05,40,10.60
2020,08,14,05,41,10.60
2020,08,14,05,42,10.60
2020,08,14,05,43,10.60
2020,08,14,05,44,10.60
2020,08,14,05,45,10.60
2020,08,14,05,46,10.60
2020,08,14,05,47,10.60
2020,08,14,05,48,10.60
2020,08,14,05,49,10.60
2020,08,14,05,50,10.60
2020,08,14,05,51,10.60
2020,08,14,05,52,10.60
2020,08,14,05,53,10.60
2020,08,14,05,54,10.60
2020,08,14,05,55,10.60
2020,08,14,05,56,10.60
2020,08,14,05,57,10.60
2020,08,14,05,58,10.60
2020,08,14,05,59,10.60
2020,08,14,06,00,10.60
2020,08,14,06,01,10.60
2020,08,14,06,02,10.60
2020,08,14,06,03,10.60
2020,08,14,06,04,10.60
2020,08,14,06,05,10.60
2020,08,14,06,06,10.60
2020,08,14,06,07,10.60
2020,08,14,06,08,10.60
2020,08,14,06,09,10.60
2020,08,14,06,10,10.60
2020,08,14,06,11,10.60
2020,08,14,06,12,10.60
2020,08,14,06,13,10.60
2020,08,14,06,14,10.60
2020,08,14,06,15,10.60
2020,08,14,06,16,10.60
2020,08,14,06,17,10.60
2020,08,14,06,18,10.60
2020,08,14,06,19,10.60
2020,08,14,06,20,10.60
2020,08,14,06,21,10.60
2020,08,14,06,22,10.60
2020,08,14,06,23,10.60
2020,08,14,06,24,10.50
2020,08,14,06,25,10.40
2020,08,14,06,26,10.40
2020,08,14,06,27,10.40
2020,08,14,06,28,10.40
2020,08,14,06,29,10.40
2020,08,14,06,30,10.40
2020,08,14,06,31,10.40
2020,08,14,06,32,10.40
2020,08,14,06,33,10.40
2020,08,14,06,34,10.40
2020,08,14,06,35,10.50
2020,08,14,06,36,10.60
2020,08,14,06,37,10.60
2020,08,14,06,38,10.60
2020,08,14,06,39,10.60
2020,08,14,06,40,10.60
2020,08,14,06,41,10.60
2020,08,14,06,42,10.60
2020,08,14,06,43,10.60
2020,08,14,06,44,10.60
2020,08,14,06,45,10.70
2020,08,14,06,46,10.70
2020,08,14,06,47,10.70
2020,08,14,06,48,10.80
2020,08,14,06,49,10.80
2020,08,14,06,50,10.80
2020,08,14,06,51,10.90
2020,08,14,06,52,10.90
2020,08,14,06,53,10.90
2020,08,14,06,54,11.00
2020,08,14,06,55,11.10
2020,08,14,06,56,11.10
2020,08,14,06,57,11.10
2020,08,14,06,58,11.10
2020,08,14,06,59,11.20
2020,08,14,07,00,11.20
2020,08,14,07,01,11.20
2020,08,14,07,02,11.30
2020,08,14,07,03,11.30
2020,08,14,07,04,11.40
2020,08,14,07,05,11.40
2020,08,14,07,06,11.40
2020,08,14,07,07,11.40
2020,08,14,07,08,11.50
2020,08,14,07,09,11.60
2020,08,14,07,10,11.60
2020,08,14,07,11,11.60
2020,08,14,07,12,11.70
2020,08,14,07,13,11.80
2020,08,14,07,14,11.80
2020,08,14,07,15,11.80
2020,08,14,07,16,11.90
2020,08,14,07,17,11.90
2020,08,14,07,18,12.00
2020,08,14,07,19,12.00
2020,08,14,07,20,12.10
2020,08,14,07,21,12.20
2020,08,14,07,22,12.30
2020,08,14,07,23,12.30
2020,08,14,07,24,12.40
2020,08,14,07,25,12.50
2020,08,14,07,26,12.50
2020,08,14,07,27,12.60
2020,08,14,07,28,12.70
2020,08,14,07,29,12.70
2020,08,14,07,30,12.80
2020,08,14,07,31,12.80
2020,08,14,07,32,12.90
2020,08,14,07,33,12.90
2020,08,14,07,34,13.00
2020,08,14,07,35,13.00
2020,08,14,07,36,13.10
2020,08,14,07,37,13.20
2020,08,14,07,38,13.20
2020,08,14,07,39,13.30
2020,08,14,07,40,13.30
2020,08,14,07,41,13.40
2020,08,14,07,42,13.50
2020,08,14,07,43,13.60
2020,08,14,07,44,13.60
2020,08,14,07,45,13.70
2020,08,14,07,46,13.70
2020,08,14,07,47,13.80
2020,08,14,07,48,13.90
2020,08,14,07,49,13.90
2020,08,14,07,50,14.00
2020,08,14,07,51,14.00
2020,08,14,07,52,14.10
2020,08,14,07,53,14.20
2020,08,14,07,54,14.20
2020,08,14,07,55,14.40
2020,08,14,07,56,14.50
2020,08,14,07,57,14.60
2020,08,14,07,58,14.70
2020,08,14,07,59,14.80
2020,08,14,08,00,15.00
2020,08,14,08,01,15.10
2020,08,14,08,02,15.20
2020,08,14,08,03,15.30
2020,08,14,08,04,15.40
2020,08,14,08,05,15.50
2020,08,14,08,06,15.60
2020,08,14,08,07,15.60
2020,08,14,08,08,15.70
2020,08,14,08,09,15.70
2020,08,14,08,10,15.80
2020,08,14,08,11,15.80
2020,08,14,08,12,15.90
2020,08,14,08,13,16.00
2020,08,14,08,14,16.10
2020,08,14,08,15,16.20
2020,08,14,08,16,16.30
2020,08,14,08,17,16.40
2020,08,14,08,18,16.50
2020,08,14,08,19,16.60
2020,08,14,08,20,16.70
2020,08,14,08,21,16.70
2020,08,14,08,22,16.70
2020,08,14,08,23,16.70
2020,08,14,08,24,16.70
2020,08,14,08,25,16.70
2020,08,14,08,26,16.70
2020,08,14,08,27,16.70
2020,08,14,08,28,16.70
2020,08,14,08,29,16.70
2020,08,14,08,30,16.80
2020,08,14,08,31,16.90
2020,08,14,08,32,17.00
2020,08,14,08,33,17.10
2020,08,14,08,34,17.20
2020,08,14,08,35,17.20
2020,08,14,08,36,17.30
2020,08,14,08,37,17.40
2020,08,14,08,38,17.50
2020,08,14,08,39,17.50
2020,08,14,08,40,17.60
2020,08,14,08,41,17.70
2020,08,14,08,42,17.70
2020,08,14,08,43,17.60
2020,08,14,08,44,17.60
2020,08,14,08,45,17.70
2020,08,14,08,46,17.70
2020,08,14,08,47,17.80
2020,08,14,08,48,17.80
2020,08,14,08,49,17.90
2020,08,14,08,50,17.90
2020,08,14,08,51,17.90
2020,08,14,08,52,17.90
2020,08,14,08,53,17.90
2020,08,14,08,54,17.90
2020,08,14,08,55,17.90
2020,08,14,08,56,18.10
2020,08,14,08,57,18.10
2020,08,14,08,58,18.10
2020,08,14,08,59,18.10
2020,08,14,09,00,18.10
2020,08,14,09,01,18.10
2020,08,14,09,02,18.10
2020,08,14,09,03,18.20
2020,08,14,09,04,18.20
2020,08,14,09,05,18.20
2020,08,14,09,06,18.20
2020,08,14,09,07,18.30
2020,08,14,09,08,18.30
2020,08,14,09,09,18.40
2020,08,14,09,10,18.30
2020,08,14,09,11,18.30
2020,08,14,09,12,18.30
2020,08,14,09,13,18.20
2020,08,14,09,14,18.30
2020,08,14,09,15,18.30
2020,08,14,09,16,18.30
2020,08,14,09,17,18.40
2020,08,14,09,18,18.40
2020,08,14,09,19,18.50
2020,08,14,09,20,18.40
2020,08,14,09,21,18.40
2020,08,14,09,22,18.40
2020,08,14,09,23,18.40
2020,08,14,09,24,18.40
2020,08,14,09,25,18.40
2020,08,14,09,26,18.30
2020,08,14,09,27,18.20
2020,08,14,09,28,18.20
2020,08,14,09,29,18.20
2020,08,14,09,30,18.20
2020,08,14,09,31,18.20
2020,08,14,09,32,18.20
2020,08,14,09,33,18.20
2020,08,14,09,34,18.20
2020,08,14,09,35,18.20
2020,08,14,09,36,18.20
2020,08,14,09,37,18.20
2020,08,14,09,38,18.20
2020,08,14,09,39,18.20
2020,08,14,09,40,18.20
2020,08,14,09,41,18.20
2020,08,14,09,42,18.20
2020,08,14,09,43,18.20
2020,08,14,09,44,18.20
2020,08,14,09,45,18.20
2020,08,14,09,46,18.20
2020,08,14,09,47,18.30
2020,08,14,09,48,18.40
2020,08,14,09,49,18.40
2020,08,14,09,50,18.50
2020,08,14,09,51,18.50
2020,08,14,09,52,18.50
2020,08,14,09,53,18.50
2020,08,14,09,54,18.50
2020,08,14,09,55,18.50
2020,08,14,09,56,18.40
2020,08,14,09,57,18.50
2020,08,14,09,58,18.50
2020,08,14,09,59,18.40
2020,08,14,10,00,18.40
2020,08,14,10,01,18.40
2020,08,14,10,02,18.30
2020,08,14,10,03,18.40
2020,08,14,10,04,18.40
2020,08,14,10,05,18.40
2020,08,14,10,06,18.40
2020,08,14,10,07,18.40
2020,08,14,10,08,18.40
2020,08,14,10,09,18.40
2020,08,14,10,10,18.30
2020,08,14,10,11,18.30
2020,08,14,10,12,18.30
2020,08,14,10,13,18.30
2020,08,14,10,14,18.30
2020,08,14,10,15,18.30
2020,08,14,10,16,18.30
2020,08,14,10,17,18.30
2020,08,14,10,18,18.30
2020,08,14,10,19,18.30
2020,08,14,10,20,18.30
2020,08,14,10,21,18.20
2020,08,14,10,22,18.20
2020,08,14,10,23,18.10
2020,08,14,10,24,18.10
2020,08,14,10,25,17.90
2020,08,14,10,26,18.00
2020,08,14,10,27,18.10
2020,08,14,10,28,18.20
2020,08,14,10,29,18.20
2020,08,14,10,30,18.20
2020,08,14,10,31,18.30
2020,08,14,10,32,18.40
2020,08,14,10,33,18.40
2020,08,14,10,34,18.40
2020,08,14,10,35,18.40
2020,08,14,10,36,18.50
2020,08,14,10,37,18.50
2020,08,14,10,38,18.50
2020,08,14,10,39,18.50
2020,08,14,10,40,18.60
2020,08,14,10,41,18.60
2020,08,14,10,42,18.60
2020,08,14,10,43,18.60
2020,08,14,10,44,18.70
2020,08,14,10,45,18.70
2020,08,14,10,46,18.70
2020,08,14,10,47,18.70
2020,08,14,10,48,18.70
2020,08,14,10,49,18.70
2020,08,14,10,50,18.70
2020,08,14,10,51,18.70
2020,08,14,10,52,18.60
2020,08,14,10,53,18.60
2020,08,14,10,54,18.60
2020,08,14,10,55,18.50
2020,08,14,10,56,18.50
2020,08,14,10,57,18.50
2020,08,14,10,58,18.40
2020,08,14,10,59,18.40
2020,08,14,11,00,18.50
2020,08,14,11,01,18.50
2020,08,14,11,02,18.50
2020,08,14,11,03,18.60
2020,08,14,11,04,18.70
2020,08,14,11,05,18.90
2020,08,14,11,06,18.90
2020,08,14,11,07,19.00
2020,08,14,11,08,19.10
2020,08,14,11,09,19.10
2020,08,14,11,10,19.00
2020,08,14,11,11,19.10
2020,08,14,11,12,19.10
2020,08,14,11,13,19.10
2020,08,14,11,14,19.20
2020,08,14,11,15,19.30
2020,08,14,11,16,19.40
2020,08,14,11,17,19.60
2020,08,14,11,18,19.80
2020,08,14,11,19,19.90
2020,08,14,11,20,20.10
2020,08,14,11,21,20.20
2020,08,14,11,22,20.20
2020,08,14,11,23,20.20
2020,08,14,11,24,20.20
2020,08,14,11,25,20.00
2020,08,14,11,26,19.90
2020,08,14,11,27,19.80
2020,08,14,11,28,19.70
2020,08,14,11,29,19.70
2020,08,14,11,30,19.70
2020,08,14,11,31,19.70
2020,08,14,11,32,19.70
2020,08,14,11,33,19.80
2020,08,14,11,34,19.80
2020,08,14,11,35,19.80
2020,08,14,11,36,19.80
2020,08,14,11,37,19.80
2020,08,14,11,38,19.80
2020,08,14,11,39,19.90
2020,08,14,11,40,19.90
2020,08,14,11,41,19.90
2020,08,14,11,42,19.90
2020,08,14,11,43,19.90
2020,08,14,11,44,19.90
2020,08,14,11,45,19.90
2020,08,14,11,46,19.90
2020,08,14,11,47,19.80
2020,08,14,11,48,19.80
2020,08,14,11,49,19.80
2020,08,14,11,50,19.90
2020,08,14,11,51,19.80
2020,08,14,11,52,19.80
2020,08,14,11,53,19.80
2020,08,14,11,54,19.90
2020,08,14,11,55,20.00
2020,08,14,11,56,20.10
2020,08,14,11,57,20.10
2020,08,14,11,58,20.10
2020,08,14,11,59,20.10
2020,08,14,12,00,20.00
2020,08,14,12,01,19.90
2020,08,14,12,02,19.90
2020,08,14,12,03,19.80
2020,08,14,12,04,19.70
2020,08,14,12,05,19.60
2020,08,14,12,06,19.60
2020,08,14,12,07,19.60
2020,08,14,12,08,19.70
2020,08,14,12,09,19.70
2020,08,14,12,10,19.80
2020,08,14,12,11,19.90
2020,08,14,12,12,19.90
2020,08,14,12,13,19.90
2020,08,14,12,14,19.90
2020,08,14,12,15,19.90
2020,08,14,12,16,19.90
2020,08,14,12,17,19.90
2020,08,14,12,18,20.00
2020,08,14,12,19,20.00
2020,08,14,12,20,19.90
2020,08,14,12,21,19.90
2020,08,14,12,22,19.90
2020,08,14,12,23,19.90
2020,08,14,12,24,19.90
2020,08,14,12,25,19.90
2020,08,14,12,26,19.80
2020,08,14,12,27,19.70
2020,08,14,12,28,19.70
2020,08,14,12,29,19.60
2020,08,14,12,30,19.60
2020,08,14,12,31,19.60
2020,08,14,12,32,19.60
2020,08,14,12,33,19.60
2020,08,14,12,34,19.50
2020,08,14,12,35,19.50
2020,08,14,12,36,19.50
2020,08,14,12,37,19.40
2020,08,14,12,38,19.40
2020,08,14,12,39,19.50
2020,08,14,12,40,19.50
2020,08,14,12,41,19.60
2020,08,14,12,42,19.70
2020,08,14,12,43,19.80
2020,08,14,12,44,19.90
2020,08,14,12,45,20.00
2020,08,14,12,46,20.10
2020,08,14,12,47,20.10
2020,08,14,12,48,20.20
2020,08,14,12,49,20.20
2020,08,14,12,50,20.40
2020,08,14,12,51,20.40
2020,08,14,12,52,20.40
2020,08,14,12,53,20.20
2020,08,14,12,54,20.20
2020,08,14,12,55,20.20
2020,08,14,12,56,20.10
2020,08,14,12,57,20.00
2020,08,14,12,58,19.90
2020,08,14,12,59,19.90
2020,08,14,13,00,19.90
2020,08,14,13,01,19.80
2020,08,14,13,02,19.80
2020,08,14,13,03,19.80
2020,08,14,13,04,19.80
2020,08,14,13,05,19.70
2020,08,14,13,06,19.60
2020,08,14,13,07,19.60
2020,08,14,13,08,19.60
2020,08,14,13,09,19.60
2020,08,14,13,10,19.60
2020,08,14,13,11,19.70
2020,08,14,13,12,19.70
2020,08,14,13,13,19.60
2020,08,14,13,14,19.50
2020,08,14,13,15,19.50
2020,08,14,13,16,19.60
2020,08,14,13,17,19.70
2020,08,14,13,18,19.70
2020,08,14,13,19,19.70
2020,08,14,13,20,19.70
2020,08,14,13,21,19.70
2020,08,14,13,22,19.70
2020,08,14,13,23,19.80
2020,08,14,13,24,19.90
2020,08,14,13,25,20.00
2020,08,14,13,26,19.90
2020,08,14,13,27,19.90
2020,08,14,13,28,19.90
2020,08,14,13,29,20.10
2020,08,14,13,30,20.10
2020,08,14,13,31,20.10
2020,08,14,13,32,20.20
2020,08,14,13,33,20.20
2020,08,14,13,34,20.20
2020,08,14,13,35,20.10
2020,08,14,13,36,20.00
2020,08,14,13,37,19.90
2020,08,14,13,38,20.00
2020,08,14,13,39,20.10
2020,08,14,13,40,20.10
2020,08,14,13,41,20.20
2020,08,14,13,42,20.20
2020,08,14,13,43,20.30
2020,08,14,13,44,20.40
2020,08,14,13,45,20.50
2020,08,14,13,46,20.70
2020,08,14,13,47,20.80
2020,08,14,13,48,20.90
2020,08,14,13,49,21.00
2020,08,14,13,50,21.10
2020,08,14,13,51,21.00
2020,08,14,13,52,21.00
2020,08,14,13,53,21.00
2020,08,14,13,54,21.00
2020,08,14,13,55,21.10
2020,08,14,13,56,21.10
2020,08,14,13,57,20.90
2020,08,14,13,58,20.70
2020,08,14,13,59,20.60
2020,08,14,14,00,20.50
2020,08,14,14,01,20.50
2020,08,14,14,02,20.50
2020,08,14,14,03,20.50
2020,08,14,14,04,20.50
2020,08,14,14,05,20.60
2020,08,14,14,06,20.80
2020,08,14,14,07,20.80
2020,08,14,14,08,20.80
2020,08,14,14,09,20.90
2020,08,14,14,10,20.90
2020,08,14,14,11,21.00
2020,08,14,14,12,21.10
2020,08,14,14,13,21.10
2020,08,14,14,14,21.00
2020,08,14,14,15,21.00
2020,08,14,14,16,20.80
2020,08,14,14,17,20.70
2020,08,14,14,18,20.70
2020,08,14,14,19,20.70
2020,08,14,14,20,20.80
2020,08,14,14,21,20.80
2020,08,14,14,22,20.90
2020,08,14,14,23,20.90
2020,08,14,14,24,20.80
2020,08,14,14,25,20.70
2020,08,14,14,26,20.70
2020,08,14,14,27,20.70
2020,08,14,14,28,20.80
2020,08,14,14,29,20.80
2020,08,14,14,30,20.80
2020,08,14,14,31,20.70
2020,08,14,14,32,20.60
2020,08,14,14,33,20.70
2020,08,14,14,34,20.80
2020,08,14,14,35,21.00
2020,08,14,14,36,21.10
2020,08,14,14,37,21.30
2020,08,14,14,38,21.30
2020,08,14,14,39,21.10
2020,08,14,14,40,21.10
2020,08,14,14,41,21.00
2020,08,14,14,42,20.90
2020,08,14,14,43,21.00
2020,08,14,14,44,21.00
2020,08,14,14,45,21.10
2020,08,14,14,46,21.20
2020,08,14,14,47,21.30
2020,08,14,14,48,21.30
2020,08,14,14,49,21.30
2020,08,14,14,50,21.30
2020,08,14,14,51,21.40
2020,08,14,14,52,21.50
2020,08,14,14,53,21.60
2020,08,14,14,54,21.60
2020,08,14,14,55,21.60
2020,08,14,14,56,21.60
2020,08,14,14,57,21.60
2020,08,14,14,58,21.60
2020,08,14,14,59,21.50
2020,08,14,15,00,21.40
2020,08,14,15,01,21.40
2020,08,14,15,02,21.50
2020,08,14,15,03,21.60
2020,08,14,15,04,21.60
2020,08,14,15,05,21.70
2020,08,14,15,06,21.70
2020,08,14,15,07,21.70
2020,08,14,15,08,21.70
2020,08,14,15,09,21.60
2020,08,14,15,10,21.60
2020,08,14,15,11,21.70
2020,08,14,15,12,21.70
2020,08,14,15,13,21.80
2020,08,14,15,14,21.90
2020,08,14,15,15,21.90
2020,08,14,15,16,21.90
2020,08,14,15,17,21.80
2020,08,14,15,18,21.80
2020,08,14,15,19,21.70
2020,08,14,15,20,21.80
2020,08,14,15,21,21.90
2020,08,14,15,22,21.90
2020,08,14,15,23,21.90
2020,08,14,15,24,21.80
2020,08,14,15,25,21.70
2020,08,14,15,26,21.60
2020,08,14,15,27,21.60
2020,08,14,15,28,21.60
2020,08,14,15,29,21.60
2020,08,14,15,30,21.70
2020,08,14,15,31,21.80
2020,08,14,15,32,21.80
2020,08,14,15,33,21.80
2020,08,14,15,34,21.70
2020,08,14,15,35,21.70
2020,08,14,15,36,21.70
2020,08,14,15,37,21.60
2020,08,14,15,38,21.60
2020,08,14,15,39,21.60
2020,08,14,15,40,21.60
2020,08,14,15,41,21.60
2020,08,14,15,42,21.60
2020,08,14,15,43,21.80
2020,08,14,15,44,21.90
2020,08,14,15,45,22.10
2020,08,14,15,46,22.30
2020,08,14,15,47,22.30
2020,08,14,15,48,22.30
2020,08,14,15,49,22.30
2020,08,14,15,50,22.20
2020,08,14,15,51,22.20
2020,08,14,15,52,22.10
2020,08,14,15,53,22.10
2020,08,14,15,54,22.10
2020,08,14,15,55,22.20
2020,08,14,15,56,22.20
2020,08,14,15,57,22.20
2020,08,14,15,58,22.30
2020,08,14,15,59,22.30
2020,08,14,16,00,22.40
2020,08,14,16,01,22.40
2020,08,14,16,02,22.40
2020,08,14,16,03,22.50
2020,08,14,16,04,22.50
2020,08,14,16,05,22.50
2020,08,14,16,06,22.50
2020,08,14,16,07,22.40
2020,08,14,16,08,22.40
2020,08,14,16,09,22.30
2020,08,14,16,10,22.10
2020,08,14,16,11,22.00
2020,08,14,16,12,22.00
2020,08,14,16,13,22.00
2020,08,14,16,14,22.00
2020,08,14,16,15,22.00
2020,08,14,16,16,22.00
2020,08,14,16,17,22.00
2020,08,14,16,18,22.00
2020,08,14,16,19,22.00
2020,08,14,16,20,22.00
2020,08,14,16,21,22.00
2020,08,14,16,22,22.10
2020,08,14,16,23,22.20
2020,08,14,16,24,22.30
2020,08,14,16,25,22.50
2020,08,14,16,26,22.60
2020,08,14,16,27,22.60
2020,08,14,16,28,22.60
2020,08,14,16,29,22.60
2020,08,14,16,30,22.60
2020,08,14,16,31,22.60
2020,08,14,16,32,22.50
2020,08,14,16,33,22.50
2020,08,14,16,34,22.40
2020,08,14,16,35,22.40
2020,08,14,16,36,22.50
2020,08,14,16,37,22.50
2020,08,14,16,38,22.40
2020,08,14,16,39,22.40
2020,08,14,16,40,22.60
2020,08,14,16,41,22.70
2020,08,14,16,42,22.90
2020,08,14,16,43,22.90
2020,08,14,16,44,22.90
2020,08,14,16,45,22.90
2020,08,14,16,46,22.90
2020,08,14,16,47,22.90
2020,08,14,16,48,22.90
2020,08,14,16,49,22.80
2020,08,14,16,50,22.80
2020,08,14,16,51,22.70
2020,08,14,16,52,22.70
2020,08,14,16,53,22.60
2020,08,14,16,54,22.60
2020,08,14,16,55,22.50
2020,08,14,16,56,22.50
2020,08,14,16,57,22.60
2020,08,14,16,58,22.60
2020,08,14,16,59,22.60
2020,08,14,17,00,22.70
2020,08,14,17,01,22.70
2020,08,14,17,02,22.60
2020,08,14,17,03,22.60
2020,08,14,17,04,22.60
2020,08,14,17,05,22.50
2020,08,14,17,06,22.50
2020,08,14,17,07,22.30
2020,08,14,17,08,22.20
2020,08,14,17,09,22.20
2020,08,14,17,10,22.10
2020,08,14,17,11,22.10
2020,08,14,17,12,22.10
2020,08,14,17,13,22.00
2020,08,14,17,14,22.10
2020,08,14,17,15,22.10
2020,08,14,17,16,22.10
2020,08,14,17,17,22.10
2020,08,14,17,18,22.10
2020,08,14,17,19,22.10